WB8HRV Weather Reports


Display with metric or nautical units.
time (UTC)temp
F
wind
direction
speed
MPH
gust
MPH
rain 1hr
in
rain 24hr
in
rain mn
in
humidity
%
barometer
mb
20260505054613 67 161 1.0 7.0 0.00 0.00 0.00 60 1005.5
20260505053612 67 108 2.0 10.0 0.00 0.00 0.00 59 1005.4
20260505053055 68 105 1.0 8.0 0.00 0.00 0.00 59 1005.3
20260505051614 68 166 2.0 15.0 0.00 0.00 0.00 59 1005.2
20260505050614 68 115 1.0 7.0 0.00 0.00 0.00 59 1005.5
20260505041613 69 155 1.0 5.0 0.00 0.00 0.00 60 1006.0
20260505040613 69 183 1.0 3.0 0.00 0.00 0.00 59 1006.0
20260505035614 69 152 1.0 6.0 0.00 0.00 0.00 59 1006.2
20260505034613 69 198 1.0 7.0 0.00 0.00 0.00 59 1006.1
20260505033612 69 190 1.0 6.0 0.00 0.00 0.00 59 1006.0
20260505032614 69 221 1.0 5.0 0.00 0.00 0.00 58 1006.0
20260505031613 69 163 1.0 6.0 0.00 0.00 0.00 59 1006.0
20260505030613 69 136 1.0 6.0 0.00 0.00 0.00 59 1005.9
20260505025615 69 186 1.0 11.0 0.00 0.00 0.00 58 1005.8
20260505024612 69 104 1.0 6.0 0.00 0.00 0.00 58 1005.6
20260505023612 69 115 1.0 7.0 0.00 0.00 0.00 58 1005.5
20260505022611 69 112 1.0 6.0 0.00 0.00 0.00 59 1005.5
20260505021610 70 130 1.0 8.0 0.00 0.00 0.00 58 1005.3
20260505020611 70 117 1.0 7.0 0.00 0.00 0.00 58 1005.2
20260505015608 70 133 1.0 7.0 0.00 0.00 0.00 58 1005.0
20260505014612 71 86 1.0 4.0 0.00 0.00 0.00 57 1005.0
20260505013606 71 138 1.0 6.0 0.00 0.00 0.00 57 1005.0
20260505012601 71 127 1.0 4.0 0.00 0.00 0.00 56 1004.9
20260505011600 71 189 1.0 4.0 0.00 0.00 0.00 56 1004.8
20260505010558 71 99 1.0 3.0 0.00 0.00 0.00 55 1004.8
20260505005558 72 129 1.0 6.0 0.00 0.00 0.00 54 1004.7
20260505004557 72 201 0.0 2.0 0.00 0.00 0.00 53 1004.7
20260505004528 73 172 1.0 8.0 0.00 0.00 0.00 52 1004.7
20260505002559 73 150 2.0 11.0 0.00 0.00 0.00 51 1004.7
20260505002516 74 180 1.0 11.0 0.00 0.00 0.00 50 1004.8
20260505001522 74 184 1.0 6.0 0.00 0.00 0.00 49 1004.9
20260504235554 74 213 1.0 6.0 0.00 0.00 0.00 49 1005.0
20260504234559 75 269 2.0 14.0 0.00 0.00 0.00 48 1005.2
20260504233554 75 183 4.0 15.0 0.00 0.00 0.00 47 1005.3
20260504232554 76 250 3.0 12.0 0.00 0.00 0.00 47 1005.3
20260504231554 76 237 2.0 17.0 0.00 0.00 0.00 46 1005.4
20260504231044 76 189 3.0 18.0 0.00 0.00 0.00 45 1005.5
20260504225555 76 227 2.0 10.0 0.00 0.00 0.00 46 1005.4
20260504224554 76 267 3.0 18.0 0.00 0.00 0.00 46 1005.5
20260504223555 76 226 3.0 16.0 0.00 0.00 0.00 47 1005.5
20260504222552 76 179 1.0 10.0 0.00 0.00 0.00 52 1005.6
20260504221552 76 161 1.0 7.0 0.00 0.00 0.00 51 1005.6
20260504220552 75 188 1.0 4.0 0.00 0.00 0.00 52 1005.4
20260504220515 75 232 1.0 9.0 0.00 0.00 0.00 51 1005.7
20260504214553 75 226 2.0 14.0 0.00 0.00 0.00 50 1006.0
20260504213553 75 189 2.0 7.0 0.00 0.00 0.00 49 1006.0
20260504212554 75 271 2.0 11.0 0.00 0.00 0.00 47 1006.1
20260504212032 76 259 2.0 12.0 0.00 0.00 0.00 48 1006.3
20260504211031 76 240 2.0 10.0 0.00 0.00 0.00 49 1006.4
20260504205552 75 259 4.0 13.0 0.00 0.00 0.00 51 1006.5
20260504204552 75 221 2.0 9.0 0.00 0.00 0.00 50 1006.6
20260504203938 74 256 2.0 9.0 0.00 0.00 0.00 52 1006.9
20260504203616 76 238 2.0 11.0 0.00 0.00 0.00 52 1006.7
20260504202027 74 261 2.0 12.0 0.00 0.00 0.00 51 1007.1
20260504200550 74 175 1.0 9.0 0.00 0.00 0.00 50 1007.0
20260504195551 74 249 2.0 8.0 0.00 0.00 0.00 52 1007.1
20260504195025 73 219 2.0 15.0 0.00 0.00 0.00 54 1007.6
20260504193551 73 147 1.0 10.0 0.00 0.00 0.00 54 1007.8
20260504192550 73 265 2.0 8.0 0.00 0.00 0.00 59 1008.0
20260504191550 72 170 1.0 8.0 0.00 0.00 0.00 58 1007.8
20260504191030 71 239 2.0 11.0 0.00 0.00 0.00 60 1008.1
20260504185551 70 258 2.0 8.0 0.00 0.00 0.00 61 1008.2
20260504184549 69 212 2.0 9.0 0.00 0.00 0.00 62 1008.4
20260504183548 69 206 3.0 17.0 0.00 0.00 0.00 61 1008.2
20260504182549 69 234 3.0 16.0 0.00 0.00 0.00 60 1008.2
20260504181549 69 240 2.0 11.0 0.00 0.00 0.00 59 1007.9
20260504180550 70 232 2.0 10.0 0.00 0.00 0.00 59 1007.9
20260504175548 69 214 3.0 15.0 0.00 0.00 0.00 59 1007.7
20260504174549 70 272 4.0 19.0 0.00 0.00 0.00 57 1007.5
20260504173544 71 141 3.0 12.0 0.00 0.00 0.00 58 1007.5
20260504172545 70 261 3.0 10.0 0.00 0.00 0.00 60 1007.8
20260504171544 69 240 2.0 10.0 0.00 0.00 0.00 61 1007.7
20260504170545 69 120 2.0 12.0 0.00 0.00 0.00 63 1007.2
20260504150544 63 219 2.0 10.0 0.00 0.00 0.00 66 1008.6
20260504140542 60 196 2.0 8.0 0.00 0.00 0.00 66 1008.6
20260504130535 57 170 1.0 7.0 0.00 0.00 0.00 70 1009.1
20260504110531 53 133 1.0 4.0 0.00 0.00 0.00 68 1009.0
20260504081525 53 140 1.0 4.0 0.00 0.00 0.00 64 1010.0
20260504080526 53 191 1.0 5.0 0.00 0.00 0.00 63 1010.1